Previsão horária em Julkow

Hoje, 22 Junho, Terça-feira

Tempo Temperatura Precipitação Vento Pressão Humidade
00:00 +21°C° 0 mm 3 m/s 741 mmHg 85%
01:00 +20°C° 0 mm 2 m/s 740 mmHg 87%
02:00 +20°C° 0 mm 2 m/s 741 mmHg 88%
03:00 +20°C° 0 mm 2 m/s 741 mmHg 90%
04:00 +20°C° 0 mm 2 m/s 741 mmHg 91%
05:00 +21°C° 0 mm 2 m/s 741 mmHg 86%
06:00 +24°C° 0 mm 1 m/s 741 mmHg 80%
07:00 +25°C° 0 mm 1 m/s 741 mmHg 74%
08:00 +27°C° 0 mm 1 m/s 742 mmHg 69%
09:00 +28°C° 0 mm 1 m/s 742 mmHg 65%
10:00 +27°C° 0 mm 0 m/s 742 mmHg 60%
11:00 +30°C° 0.1 mm 1 m/s 742 mmHg 56%
12:00 +31°C° 0.1 mm 1 m/s 742 mmHg 53%
13:00 +32°C° 0.1 mm 1 m/s 742 mmHg 50%
14:00 +31°C° 0 mm 1 m/s 742 mmHg 52%
15:00 +31°C° 0 mm 2 m/s 742 mmHg 54%
16:00 +31°C° 0 mm 2 m/s 743 mmHg 56%
17:00 +28°C° 1.6 mm 2 m/s 743 mmHg 66%
18:00 +25°C° 1.6 mm 2 m/s 743 mmHg 76%
19:00 +21°C° 1.6 mm 2 m/s 743 mmHg 87%
20:00 +21°C° 0.9 mm 2 m/s 743 mmHg 89%
21:00 +21°C° 0.9 mm 2 m/s 744 mmHg 90%
22:00 +21°C° 0.9 mm 1 m/s 744 mmHg 92%
23:00 +20°C° 0.2 mm 2 m/s 744 mmHg 93%

Amanhã, 23 Junho, Quarta-feira

Tempo Temperatura Precipitação Vento Pressão Humidade
00:00 +20°C° 0.2 mm 2 m/s 744 mmHg 93%
01:00 +20°C° 0.2 mm 2 m/s 744 mmHg 94%
02:00 +20°C° 0.1 mm 2 m/s 744 mmHg 95%
03:00 +19°C° 0.1 mm 2 m/s 745 mmHg 96%
04:00 +19°C° 0.1 mm 2 m/s 745 mmHg 97%
05:00 +19°C° 0 mm 3 m/s 745 mmHg 94%
06:00 +20°C° 0 mm 3 m/s 746 mmHg 92%
07:00 +20°C° 0 mm 4 m/s 746 mmHg 89%
08:00 +21°C° 0.1 mm 3 m/s 746 mmHg 84%
09:00 +24°C° 0.1 mm 3 m/s 747 mmHg 79%
10:00 +25°C° 0.1 mm 3 m/s 747 mmHg 74%
11:00 +26°C° 0.1 mm 3 m/s 747 mmHg 71%
12:00 +26°C° 0.1 mm 3 m/s 747 mmHg 68%
13:00 +27°C° 0.1 mm 3 m/s 747 mmHg 65%
14:00 +27°C° 0.1 mm 3 m/s 747 mmHg 65%
15:00 +28°C° 0.1 mm 3 m/s 747 mmHg 64%
16:00 +28°C° 0.1 mm 3 m/s 747 mmHg 64%
17:00 +27°C° 0.6 mm 3 m/s 747 mmHg 70%
18:00 +25°C° 0.6 mm 3 m/s 747 mmHg 77%
19:00 +24°C° 0.6 mm 3 m/s 747 mmHg 83%
20:00 +22°C° 1.1 mm 3 m/s 747 mmHg 87%
21:00 +20°C° 1.1 mm 3 m/s 747 mmHg 91%
22:00 +19°C° 1.1 mm 3 m/s 747 mmHg 95%
23:00 +19°C° 0.4 mm 3 m/s 747 mmHg 95%

Depois de amanhã, 24 Junho, Quinta-feira

Tempo Temperatura Precipitação Vento Pressão Humidade
00:00 +19°C° 0.4 mm 2 m/s 747 mmHg 96%
01:00 +18°C° 0.4 mm 2 m/s 747 mmHg 96%
02:00 +19°C° 0 mm 2 m/s 747 mmHg 97%
03:00 +19°C° 0 mm 2 m/s 747 mmHg 97%
04:00 +19°C° 0 mm 2 m/s 747 mmHg 98%
05:00 +19°C° 0 mm 2 m/s 747 mmHg 95%
06:00 +20°C° 0 mm 2 m/s 747 mmHg 92%
07:00 +21°C° 0 mm 3 m/s 747 mmHg 90%
08:00 +23°C° 0 mm 2 m/s 747 mmHg 85%
09:00 +24°C° 0 mm 2 m/s 747 mmHg 80%
10:00 +25°C° 0 mm 2 m/s 747 mmHg 76%
11:00 +26°C° 0 mm 2 m/s 747 mmHg 72%
12:00 +27°C° 0 mm 2 m/s 747 mmHg 68%
13:00 +28°C° 0 mm 2 m/s 747 mmHg 64%
14:00 +28°C° 0.1 mm 2 m/s 747 mmHg 66%
15:00 +27°C° 0.1 mm 2 m/s 747 mmHg 68%
16:00 +27°C° 0.1 mm 2 m/s 746 mmHg 70%
17:00 +27°C° 0 mm 2 m/s 746 mmHg 74%
18:00 +26°C° 0 mm 2 m/s 746 mmHg 77%
19:00 +25°C° 0 mm 3 m/s 745 mmHg 80%
20:00 +24°C° 0.2 mm 3 m/s 745 mmHg 83%
21:00 +22°C° 0.2 mm 3 m/s 745 mmHg 87%
22:00 +21°C° 0.2 mm 3 m/s 745 mmHg 90%
23:00 +21°C° 0.3 mm 3 m/s 744 mmHg 91%

25 Junho, Sexta-feira

Tempo Temperatura Precipitação Vento Pressão Humidade
00:00 +21°C° 0.3 mm 4 m/s 743 mmHg 93%
01:00 +20°C° 0.3 mm 4 m/s 742 mmHg 94%
02:00 +20°C° 4.3 mm 4 m/s 742 mmHg 93%
03:00 +20°C° 4.3 mm 3 m/s 742 mmHg 93%
04:00 +20°C° 4.3 mm 3 m/s 742 mmHg 92%
05:00 +20°C° 0.2 mm 3 m/s 742 mmHg 89%
06:00 +21°C° 0.2 mm 3 m/s 743 mmHg 86%
07:00 +22°C° 0.2 mm 3 m/s 743 mmHg 83%
08:00 +24°C° 0 mm 3 m/s 743 mmHg 78%
09:00 +25°C° 0 mm 4 m/s 743 mmHg 73%
10:00 +26°C° 0 mm 5 m/s 743 mmHg 68%
11:00 +25°C° 0 mm 5 m/s 744 mmHg 70%
12:00 +24°C° 0 mm 6 m/s 744 mmHg 72%
13:00 +23°C° 0 mm 6 m/s 744 mmHg 74%
14:00 +23°C° 0 mm 6 m/s 745 mmHg 73%
15:00 +22°C° 0 mm 6 m/s 745 mmHg 73%
16:00 +22°C° 0 mm 6 m/s 745 mmHg 72%
17:00 +21°C° 0 mm 5 m/s 745 mmHg 74%
18:00 +20°C° 0 mm 5 m/s 746 mmHg 76%
19:00 +20°C° 0 mm 4 m/s 746 mmHg 78%
20:00 +18°C° 0 mm 4 m/s 746 mmHg 81%
21:00 +17°C° 0 mm 3 m/s 746 mmHg 84%
22:00 +16°C° 0 mm 3 m/s 746 mmHg 88%
23:00 +16°C° 0 mm 3 m/s 746 mmHg 91%

26 Junho, Sábado

Tempo Temperatura Precipitação Vento Pressão Humidade
00:00 +14°C° 0 mm 3 m/s 747 mmHg 93%
01:00 +14°C° 0 mm 3 m/s 747 mmHg 96%
02:00 +14°C° 0 mm 3 m/s 747 mmHg 96%
03:00 +14°C° 0 mm 3 m/s 747 mmHg 96%
04:00 +14°C° 0 mm 3 m/s 747 mmHg 96%
05:00 +16°C° 0 mm 3 m/s 747 mmHg 91%
06:00 +17°C° 0 mm 4 m/s 747 mmHg 86%
07:00 +18°C° 0 mm 4 m/s 747 mmHg 81%
08:00 +19°C° 0 mm 4 m/s 747 mmHg 75%
09:00 +20°C° 0 mm 4 m/s 748 mmHg 70%
10:00 +22°C° 0 mm 4 m/s 748 mmHg 65%
11:00 +22°C° 0 mm 4 m/s 748 mmHg 62%
12:00 +23°C° 0 mm 4 m/s 747 mmHg 60%
13:00 +23°C° 0 mm 5 m/s 747 mmHg 58%
14:00 +23°C° 0 mm 4 m/s 747 mmHg 58%
15:00 +23°C° 0 mm 4 m/s 747 mmHg 58%
16:00 +24°C° 0 mm 3 m/s 747 mmHg 58%
17:00 +22°C° 0 mm 3 m/s 747 mmHg 63%
18:00 +23°C° 0 mm 2 m/s 747 mmHg 68%
19:00 +21°C° 0 mm 2 m/s 747 mmHg 73%
20:00 +19°C° 0 mm 2 m/s 747 mmHg 76%
21:00 +18°C° 0 mm 2 m/s 747 mmHg 80%
22:00 +17°C° 0 mm 2 m/s 747 mmHg 83%
23:00 +17°C° 0 mm 2 m/s 747 mmHg 85%

27 Junho, Domingo

Tempo Temperatura Precipitação Vento Pressão Humidade
00:00 +16°C° 0 mm 2 m/s 747 mmHg 87%
01:00 +16°C° 0 mm 2 m/s 747 mmHg 88%
02:00 +16°C° 0 mm 2 m/s 747 mmHg 89%
03:00 +16°C° 0 mm 2 m/s 747 mmHg 90%
04:00 +16°C° 0 mm 1 m/s 747 mmHg 91%
05:00 +17°C° 0 mm 2 m/s 747 mmHg 87%
06:00 +18°C° 0 mm 2 m/s 747 mmHg 83%
07:00 +19°C° 0 mm 2 m/s 748 mmHg 78%
08:00 +20°C° 0.1 mm 2 m/s 748 mmHg 74%
09:00 +21°C° 0.1 mm 2 m/s 748 mmHg 70%
10:00 +23°C° 0.1 mm 2 m/s 748 mmHg 66%
11:00 +24°C° 0.3 mm 2 m/s 748 mmHg 63%
12:00 +24°C° 0.3 mm 2 m/s 748 mmHg 60%
13:00 +25°C° 0.3 mm 2 m/s 747 mmHg 57%
14:00 +25°C° 0.2 mm 1 m/s 747 mmHg 59%
15:00 +25°C° 0.2 mm 1 m/s 747 mmHg 61%
16:00 +24°C° 0.2 mm 1 m/s 747 mmHg 62%
17:00 +24°C° 0.1 mm 1 m/s 747 mmHg 66%
18:00 +23°C° 0.1 mm 1 m/s 747 mmHg 69%
19:00 +22°C° 0.1 mm 1 m/s 747 mmHg 72%
20:00 +21°C° 0 mm 1 m/s 747 mmHg 75%
21:00 +20°C° 0 mm 1 m/s 747 mmHg 77%
22:00 +19°C° 0 mm 1 m/s 748 mmHg 80%
23:00 +17°C° 0 mm 2 m/s 747 mmHg 82%
Mostrar mais

Necessitamos do seu Consentimento

A Meteoprog e os seus Fornecedores de Serviços podem armazenar e aceder a dados pessoais como cookies, identificadores do dispositivo ou outras tecnologias semelhantes existentes no seu dispositivo e processar estes dados para personalizar conteúdos e anúncios, assim como funcionalidades nas redes sociais e análise de tráfego.

  • Armazenar e/ou aceder a informações no seu dispositivo

    Os cookies, identificadores do dispositivo ou outras informações podem ser armazenados ou acedidos no seu dispositivo, para os fins acima indicados.

  • Anúncios e conteúdos personalizados, medição de anúncios e conteúdos, dados sobre o público-alvo e desenvolvimento de produtos

    Os anúncios e os conteúdos podem ser personalizados com base num perfil. Podem ser adicionados dados adicionais para uma maior personalização dos anúncios e dos conteúdos. A eficácia dos anúncios e dos conteúdos pode ser medida. Podem ser obtidas informações sobre o público que visualizou os anúncios e os conteúdos. Estes dados podem ser usados para desenvolver ou melhorar sistemas, softwares ou a experiência do utilizador.

Ao clicar em "Eu concordo”, permitirá o uso de cookies, identificadores do dispositivo e web beacons mencionados ou outras tecnologias semelhantes. As configurações do navegador do seu dispositivo podem ser alteradas.

Para certos fins, podem ser invocados interesses legítimos ao invés de consentimento. Pode ler mais informação sobre este assunto na nossa Política de Privacidade e Cookies.